Weather History for KGPI - October, 2012

Change the Weather History Date:

Thursday, October 25, 2012

  Actual Average Record
Temperature  
Mean Temperature 32 °F 39 °F  
Max Temperature 36 °F 50 °F 69 °F (1955)
Min Temperature 28 °F 28 °F 7 °F (1919)
Degree Days  
Heating Degree Days 33 26  
Month to date heating degree days 558 545  
Since 1 July heating degree days 944 1045  
Cooling Degree Days 0 0  
Month to date cooling degree days 0 0  
Year to date cooling degree days 192 147  
Moisture  
Dew Point 22 °F    
Average Humidity 73    
Maximum Humidity 85    
Minimum Humidity 61    
Precipitation  
Precipitation T in 0.04 in 0.58 in (1945)
Month to date precipitation 1.47 0.77  
Year to date precipitation 16.42 13.76  
Snow  
Snow T in - - ()
Month to date snowfall 1.3  
Year to date snowfall 26.4  
Since 1 July snowfall 1.3  
Snow Depth 0.00 in    
Sea Level Pressure  
Sea Level Pressure 30.37 in    
Wind  
Wind Speed 10 mph (NNE)    
Max Wind Speed 20 mph    
Max Gust Speed 25 mph    
Visibility 9 miles    
Events Snow    
T = Trace of Precipitation, MM = Missing Value Source: NWS Daily Summary

Daily Weather History Graph

Daily Weather History Graph

Search for Another Location

Airport or City:

Trip Planner

Search our weather history database for the weather conditions in past years. The results will help you decide how hot, cold, wet, or windy it might be!

Date:

Astronomy

Oct. 25, 2012 Rise Set
Actual Time 8:12 AM MDT 6:28 PM MDT
Civil Twilight 7:40 AM MDT 7:00 PM MDT
Nautical Twilight 7:04 AM MDT 7:37 PM MDT
Astronomical Twilight 6:27 AM MDT 8:13 PM MDT
Moon 4:30 PM MDT (10/25) 3:56 AM MDT (10/25)
Length of Visible Light 11h 20m
Length of Day
10h 15m
Waxing Gibbous, 85% of the Moon is Illuminated
Oct 25
Waxing Gibbous
Oct 29
Full
Nov 6
Last Quarter
Nov 13
New
Nov 20
First Quarter

Hourly Weather History & Observations

Time (MDT) Temp. Windchill Dew Point Humidity Pressure Visibility Wind Dir Wind Speed Gust Speed Precip Events Conditions
3:55 AM 30.0 °F 17.9 °F 21.9 °F 72% 30.22 in 10.0 mi NNE 18.4 mph - N/A   Overcast
4:55 AM 30.0 °F 19.1 °F 21.0 °F 69% 30.22 in 10.0 mi NNE 15.0 mph - N/A   Overcast
5:55 AM 30.0 °F 20.0 °F 21.0 °F 69% 30.25 in 10.0 mi NNE 12.7 mph - N/A   Overcast
6:55 AM 30.0 °F 17.9 °F 19.9 °F 66% 30.28 in 10.0 mi NNE 18.4 mph 23.0 mph N/A   Overcast
7:55 AM 28.9 °F 16.9 °F 21.0 °F 72% 30.29 in 5.0 mi NNE 17.3 mph - 0.00 in Snow Light Snow
8:51 AM 28.4 °F 17.5 °F 19.4 °F 69% 30.23 in 2.5 mi NNE 13.8 mph 20.7 mph 0.00 in Snow Light Snow
8:55 AM 28.9 °F 17.7 °F 19.9 °F 69% 30.32 in 2.5 mi North 15.0 mph - 0.00 in Snow Light Snow
9:55 AM 28.9 °F 16.9 °F 21.0 °F 72% 30.34 in 2.5 mi North 17.3 mph - 0.00 in Snow Blowing Snow
10:15 AM 28.4 °F 16.2 °F 21.2 °F 74% 30.26 in 6.0 mi North 17.3 mph - N/A Snow Blowing Snow
10:55 AM 28.9 °F 17.3 °F 21.0 °F 72% 30.36 in 10.0 mi North 16.1 mph 23.0 mph N/A Snow Blowing Snow
11:55 AM 30.0 °F 18.7 °F 21.0 °F 69% 30.38 in 10.0 mi North 16.1 mph - N/A   Overcast
12:55 PM 32.0 °F 22.1 °F 23.0 °F 69% 30.39 in 10.0 mi NNE 13.8 mph - N/A   Overcast
1:55 PM 33.1 °F 24.4 °F 23.0 °F 66% 30.40 in 10.0 mi NNE 11.5 mph - N/A   Overcast
2:55 PM 34.0 °F 25.5 °F 23.0 °F 64% 30.41 in 10.0 mi NNE 11.5 mph - N/A   Overcast
3:55 PM 34.0 °F 26.6 °F 24.1 °F 67% 30.42 in 10.0 mi NNE 9.2 mph - N/A   Overcast
4:55 PM 34.0 °F 26.6 °F 21.9 °F 61% 30.44 in 10.0 mi NE 9.2 mph - N/A   Overcast
5:55 PM 33.1 °F 26.9 °F 21.9 °F 64% 30.45 in 10.0 mi NNE 6.9 mph - N/A   Mostly Cloudy
6:55 PM 28.9 °F 25.2 °F 21.0 °F 72% 30.47 in 10.0 mi ENE 3.5 mph - N/A   Partly Cloudy
7:55 PM 28.0 °F - 23.0 °F 81% 30.48 in 10.0 mi Calm Calm - N/A   Overcast
8:55 PM 28.9 °F - 23.0 °F 78% 30.48 in 10.0 mi Calm Calm - N/A   Overcast
9:55 PM 28.9 °F 25.2 °F 24.1 °F 82% 30.49 in 10.0 mi NE 3.5 mph - N/A   Overcast
10:55 PM 28.9 °F 25.2 °F 24.1 °F 82% 30.50 in 10.0 mi NE 3.5 mph - N/A   Overcast